STARLINK-3946 (52693 NORAD) Tracking and Keplerian Element Data
This shows tracking and keplerian element data for the satellite.
Feedback or suggestion? Click here.
Element | Value |
Catalog | 52693 |
Name | STARLINK-3946 |
Epoch Orbit | 1443 |
Epoch Day | 229.25002315 |
Epoch Year | 2022 |
RAAN | 222.0018 |
Inclination | 53.2187 |
Eccentricity | 0.0002195 |
Argument of Perigee | 47.6941 |
Mean Anonmoly | 159.8992 |
Mean Motion | 15.08835722 |
Decay Rate | -0.00013739 |
L1 | 1 52693U 22053AP 22229.25002315 -.00013739 00000+0 -84683-3 0 9998 |
L2 | 2 52693 53.2187 222.0018 0002195 47.6941 159.8992 15.08835722 14432 |
Live tracking and technical data element details for STARLINK-3946 (NORAD 52693). STARLINK-3946 can be tracked NOW for your location showing map with azimuth and elevation plus other details from your city location.
Track the satellite on the map from your city or location and see movement details for azimuth, elevation, latitude, longitude, range, height, and movement on the map or in text.
IsCatalogInMostPopularTable: catalog: 52693, numindb: 7
Update: records affected: 1
GetName: 52693 STARLINK-3946
Hit Count: updated at: Thu, 18 Aug 2022 20:14:51 GMT